Year,Month,Day,Hour,Minute,Value (Times are PST for windspeed in km/hr)
2015,12,12,00,00,0.10
2015,12,12,00,01,0.00
2015,12,12,00,02,0.00
2015,12,12,00,03,0.00
2015,12,12,00,04,0.00
2015,12,12,00,05,1.10
2015,12,12,00,06,0.40
2015,12,12,00,07,0.00
2015,12,12,00,08,0.70
2015,12,12,00,09,0.00
2015,12,12,00,10,0.00
2015,12,12,00,11,0.00
2015,12,12,00,12,0.00
2015,12,12,00,13,0.00
2015,12,12,00,14,0.00
2015,12,12,00,15,0.00
2015,12,12,00,16,0.00
2015,12,12,00,17,0.50
2015,12,12,00,18,0.20
2015,12,12,00,19,0.10
2015,12,12,00,20,0.10
2015,12,12,00,21,0.50
2015,12,12,00,22,1.60
2015,12,12,00,23,0.20
2015,12,12,00,24,0.10
2015,12,12,00,25,0.00
2015,12,12,00,26,0.00
2015,12,12,00,27,0.00
2015,12,12,00,28,0.00
2015,12,12,00,29,0.00
2015,12,12,00,30,0.00
2015,12,12,00,31,0.00
2015,12,12,00,32,0.00
2015,12,12,00,33,0.00
2015,12,12,00,34,0.00
2015,12,12,00,35,0.00
2015,12,12,00,36,0.00
2015,12,12,00,37,0.00
2015,12,12,00,38,0.00
2015,12,12,00,39,0.00
2015,12,12,00,40,0.00
2015,12,12,00,41,0.10
2015,12,12,00,42,0.50
2015,12,12,00,43,1.30
2015,12,12,00,44,3.10
2015,12,12,00,45,3.80
2015,12,12,00,46,3.40
2015,12,12,00,47,3.40
2015,12,12,00,48,2.50
2015,12,12,00,49,0.90
2015,12,12,00,50,0.00
2015,12,12,00,51,0.10
2015,12,12,00,52,0.00
2015,12,12,00,53,0.00
2015,12,12,00,54,0.00
2015,12,12,00,55,0.00
2015,12,12,00,56,0.00
2015,12,12,00,57,0.10
2015,12,12,00,58,0.00
2015,12,12,00,59,0.10
2015,12,12,01,00,0.00
2015,12,12,01,01,0.00
2015,12,12,01,02,0.50
2015,12,12,01,03,0.00
2015,12,12,01,04,0.50
2015,12,12,01,05,0.90
2015,12,12,01,06,1.30
2015,12,12,01,07,0.10
2015,12,12,01,08,0.10
2015,12,12,01,09,0.00
2015,12,12,01,10,0.10
2015,12,12,01,11,0.20
2015,12,12,01,12,0.10
2015,12,12,01,13,1.00
2015,12,12,01,14,0.80
2015,12,12,01,15,1.00
2015,12,12,01,16,3.60
2015,12,12,01,17,2.90
2015,12,12,01,18,3.50
2015,12,12,01,19,3.00
2015,12,12,01,20,3.50
2015,12,12,01,21,3.50
2015,12,12,01,22,4.20
2015,12,12,01,23,4.30
2015,12,12,01,24,5.30
2015,12,12,01,25,4.80
2015,12,12,01,26,5.20
2015,12,12,01,27,4.40
2015,12,12,01,28,5.40
2015,12,12,01,29,4.80
2015,12,12,01,30,5.20
2015,12,12,01,31,5.90
2015,12,12,01,32,6.20
2015,12,12,01,33,5.30
2015,12,12,01,34,4.80
2015,12,12,01,35,5.10
2015,12,12,01,36,6.20
2015,12,12,01,37,5.90
2015,12,12,01,38,6.40
2015,12,12,01,39,5.60
2015,12,12,01,40,6.40
2015,12,12,01,41,4.90
2015,12,12,01,42,7.20
2015,12,12,01,43,5.90
2015,12,12,01,44,6.70
2015,12,12,01,45,6.40
2015,12,12,01,46,6.90
2015,12,12,01,47,6.60
2015,12,12,01,48,5.00
2015,12,12,01,49,4.40
2015,12,12,01,50,3.80
2015,12,12,01,51,6.40
2015,12,12,01,52,4.70
2015,12,12,01,53,5.50
2015,12,12,01,54,5.20
2015,12,12,01,55,5.70
2015,12,12,01,56,5.00
2015,12,12,01,57,5.60
2015,12,12,01,58,4.80
2015,12,12,01,59,5.00
2015,12,12,02,00,4.50
2015,12,12,02,01,4.60
2015,12,12,02,02,4.90
2015,12,12,02,03,5.70
2015,12,12,02,04,5.70
2015,12,12,02,05,5.00
2015,12,12,02,06,5.20
2015,12,12,02,07,5.20
2015,12,12,02,08,4.70
2015,12,12,02,09,5.50
2015,12,12,02,10,5.10
2015,12,12,02,11,6.70
2015,12,12,02,12,5.10
2015,12,12,02,13,6.00
2015,12,12,02,14,5.70
2015,12,12,02,15,7.00
2015,12,12,02,16,7.90
2015,12,12,02,17,7.60
2015,12,12,02,18,6.40
2015,12,12,02,19,6.70
2015,12,12,02,20,5.70
2015,12,12,02,21,6.00
2015,12,12,02,22,6.40
2015,12,12,02,23,7.60
2015,12,12,02,24,6.10
2015,12,12,02,25,7.50
2015,12,12,02,26,8.40
2015,12,12,02,27,6.50
2015,12,12,02,28,7.10
2015,12,12,02,29,7.70
2015,12,12,02,30,7.10
2015,12,12,02,31,5.70
2015,12,12,02,32,5.60
2015,12,12,02,33,5.60
2015,12,12,02,34,6.10
2015,12,12,02,35,4.80
2015,12,12,02,36,5.00
2015,12,12,02,37,6.00
2015,12,12,02,38,4.70
2015,12,12,02,39,7.30
2015,12,12,02,40,8.10
2015,12,12,02,41,7.80
2015,12,12,02,42,7.20
2015,12,12,02,43,3.80
2015,12,12,02,44,4.20
2015,12,12,02,45,4.90
2015,12,12,02,46,5.90
2015,12,12,02,47,6.90
2015,12,12,02,48,5.60
2015,12,12,02,49,6.50
2015,12,12,02,50,6.70
2015,12,12,02,51,7.30
2015,12,12,02,52,6.10
2015,12,12,02,53,8.00
2015,12,12,02,54,5.40
2015,12,12,02,55,6.50
2015,12,12,02,56,6.10
2015,12,12,02,57,6.70
2015,12,12,02,58,7.80
2015,12,12,02,59,7.00
2015,12,12,03,00,9.40
2015,12,12,03,01,9.90
2015,12,12,03,02,9.80
2015,12,12,03,03,7.90
2015,12,12,03,04,6.90
2015,12,12,03,05,9.10
2015,12,12,03,06,8.00
2015,12,12,03,07,8.70
2015,12,12,03,08,7.90
2015,12,12,03,09,8.30
2015,12,12,03,10,7.70
2015,12,12,03,11,4.50
2015,12,12,03,12,7.40
2015,12,12,03,13,6.30
2015,12,12,03,14,4.20
2015,12,12,03,15,6.20
2015,12,12,03,16,6.90
2015,12,12,03,17,7.80
2015,12,12,03,18,6.20
2015,12,12,03,19,7.90
2015,12,12,03,20,8.70
2015,12,12,03,21,7.70
2015,12,12,03,22,4.50
2015,12,12,03,23,5.40
2015,12,12,03,24,3.90
2015,12,12,03,25,4.50
2015,12,12,03,26,6.40
2015,12,12,03,27,5.80
2015,12,12,03,28,8.10
2015,12,12,03,29,9.70
2015,12,12,03,30,10.30
2015,12,12,03,31,10.10
2015,12,12,03,32,11.10
2015,12,12,03,33,10.60
2015,12,12,03,34,9.90
2015,12,12,03,35,9.00
2015,12,12,03,36,10.40
2015,12,12,03,37,8.50
2015,12,12,03,38,7.30
2015,12,12,03,39,7.10
2015,12,12,03,40,11.70
2015,12,12,03,41,8.10
2015,12,12,03,42,7.60
2015,12,12,03,43,8.30
2015,12,12,03,44,10.70
2015,12,12,03,45,9.90
2015,12,12,03,46,10.60
2015,12,12,03,47,10.10
2015,12,12,03,48,8.00
2015,12,12,03,49,7.10
2015,12,12,03,50,9.00
2015,12,12,03,51,7.50
2015,12,12,03,52,6.20
2015,12,12,03,53,10.10
2015,12,12,03,54,8.40
2015,12,12,03,55,8.30
2015,12,12,03,56,6.80
2015,12,12,03,57,7.10
2015,12,12,03,58,8.10
2015,12,12,03,59,9.10
2015,12,12,04,00,9.00
2015,12,12,04,01,6.40
2015,12,12,04,02,8.80
2015,12,12,04,03,7.60
2015,12,12,04,04,8.60
2015,12,12,04,05,6.40
2015,12,12,04,06,9.20
2015,12,12,04,07,7.90
2015,12,12,04,08,9.90
2015,12,12,04,09,9.90
2015,12,12,04,10,7.90
2015,12,12,04,11,9.50
2015,12,12,04,12,10.30
2015,12,12,04,13,9.10
2015,12,12,04,14,6.90
2015,12,12,04,15,10.10
2015,12,12,04,16,12.10
2015,12,12,04,17,15.30
2015,12,12,04,18,13.90
2015,12,12,04,19,11.30
2015,12,12,04,20,17.60
2015,12,12,04,21,12.10
2015,12,12,04,22,16.10
2015,12,12,04,23,15.00
2015,12,12,04,24,13.30
2015,12,12,04,25,10.60
2015,12,12,04,26,11.70
2015,12,12,04,27,13.60
2015,12,12,04,28,14.80
2015,12,12,04,29,9.00
2015,12,12,04,30,11.40
2015,12,12,04,31,10.60
2015,12,12,04,32,12.10
2015,12,12,04,33,8.80
2015,12,12,04,34,6.80
2015,12,12,04,35,10.30
2015,12,12,04,36,10.40
2015,12,12,04,37,8.10
2015,12,12,04,38,13.60
2015,12,12,04,39,12.70
2015,12,12,04,40,10.10
2015,12,12,04,41,7.30
2015,12,12,04,42,9.00
2015,12,12,04,43,11.80
2015,12,12,04,44,9.70
2015,12,12,04,45,9.40
2015,12,12,04,46,11.80
2015,12,12,04,47,10.80
2015,12,12,04,48,13.10
2015,12,12,04,49,9.80
2015,12,12,04,50,10.60
2015,12,12,04,51,8.80
2015,12,12,04,52,9.10
2015,12,12,04,53,12.90
2015,12,12,04,54,13.60
2015,12,12,04,55,8.00
2015,12,12,04,56,10.60
2015,12,12,04,57,8.30
2015,12,12,04,58,10.40
2015,12,12,04,59,11.00
2015,12,12,05,00,9.60
2015,12,12,05,01,11.10
2015,12,12,05,02,10.00
2015,12,12,05,03,15.80
2015,12,12,05,04,11.40
2015,12,12,05,05,17.70
2015,12,12,05,06,15.00
2015,12,12,05,07,13.60
2015,12,12,05,08,11.40
2015,12,12,05,09,9.60
2015,12,12,05,10,9.00
2015,12,12,05,11,13.40
2015,12,12,05,12,13.30
2015,12,12,05,13,14.40
2015,12,12,05,14,10.70
2015,12,12,05,15,13.20
2015,12,12,05,16,9.50
2015,12,12,05,17,10.60
2015,12,12,05,18,10.70
2015,12,12,05,19,10.10
2015,12,12,05,20,8.80
2015,12,12,05,21,7.50
2015,12,12,05,22,12.20
2015,12,12,05,23,10.00
2015,12,12,05,24,9.00
2015,12,12,05,25,12.80
2015,12,12,05,26,14.30
2015,12,12,05,27,10.00
2015,12,12,05,28,21.00
2015,12,12,05,29,17.90
2015,12,12,05,30,14.00
2015,12,12,05,31,13.60
2015,12,12,05,32,17.70
2015,12,12,05,33,17.60
2015,12,12,05,34,10.20
2015,12,12,05,35,19.50
2015,12,12,05,36,14.10
2015,12,12,05,37,15.70
2015,12,12,05,38,14.80
2015,12,12,05,39,14.20
2015,12,12,05,40,10.90
2015,12,12,05,41,13.40
2015,12,12,05,42,15.50
2015,12,12,05,43,19.20
2015,12,12,05,44,14.80
2015,12,12,05,45,12.50
2015,12,12,05,46,16.10
2015,12,12,05,47,13.40
2015,12,12,05,48,11.30
2015,12,12,05,49,6.80
2015,12,12,05,50,12.90
2015,12,12,05,51,17.00
2015,12,12,05,52,17.60
2015,12,12,05,53,16.30
2015,12,12,05,54,9.20
2015,12,12,05,55,14.10
2015,12,12,05,56,14.80
2015,12,12,05,57,17.00
2015,12,12,05,58,19.40
2015,12,12,05,59,14.90
2015,12,12,06,00,17.20
2015,12,12,06,01,16.10
2015,12,12,06,02,13.80
2015,12,12,06,03,13.20
2015,12,12,06,04,16.00
2015,12,12,06,05,19.20
2015,12,12,06,06,12.30
2015,12,12,06,07,18.70
2015,12,12,06,08,19.00
2015,12,12,06,09,23.60
2015,12,12,06,10,19.10
2015,12,12,06,11,18.60
2015,12,12,06,12,12.70
2015,12,12,06,13,18.30
2015,12,12,06,14,16.00
2015,12,12,06,15,15.80
2015,12,12,06,16,23.50
2015,12,12,06,17,17.30
2015,12,12,06,18,23.30
2015,12,12,06,19,16.90
2015,12,12,06,20,19.30
2015,12,12,06,21,16.40
2015,12,12,06,22,16.90
2015,12,12,06,23,18.80
2015,12,12,06,24,22.40
2015,12,12,06,25,22.20
2015,12,12,06,26,15.80
2015,12,12,06,27,18.90
2015,12,12,06,28,19.10
2015,12,12,06,29,21.90
2015,12,12,06,30,22.60
2015,12,12,06,31,25.00
2015,12,12,06,32,22.00
2015,12,12,06,33,21.70
2015,12,12,06,34,21.70
2015,12,12,06,35,21.00
2015,12,12,06,36,20.00
2015,12,12,06,37,22.30
2015,12,12,06,38,21.70
2015,12,12,06,39,23.20
2015,12,12,06,40,22.80
2015,12,12,06,41,21.80
2015,12,12,06,42,19.50
2015,12,12,06,43,20.50
2015,12,12,06,44,19.30
2015,12,12,06,45,18.20
2015,12,12,06,46,24.20
2015,12,12,06,47,24.90
2015,12,12,06,48,20.00
2015,12,12,06,49,22.00
2015,12,12,06,50,15.00
2015,12,12,06,51,19.90
2015,12,12,06,52,18.70
2015,12,12,06,53,21.20
2015,12,12,06,54,19.80
2015,12,12,06,55,18.40
2015,12,12,06,56,20.40
2015,12,12,06,57,14.40
2015,12,12,06,58,14.10
2015,12,12,06,59,15.30
2015,12,12,07,00,12.60
2015,12,12,07,01,10.80
2015,12,12,07,02,14.30
2015,12,12,07,03,12.90
2015,12,12,07,04,12.90
2015,12,12,07,05,14.40
2015,12,12,07,06,15.70
2015,12,12,07,07,17.00
2015,12,12,07,08,14.00
2015,12,12,07,09,13.50
2015,12,12,07,10,13.00
2015,12,12,07,11,19.00
2015,12,12,07,12,16.20
2015,12,12,07,13,12.70
2015,12,12,07,14,11.40
2015,12,12,07,15,12.90
2015,12,12,07,16,10.50
2015,12,12,07,17,14.40
2015,12,12,07,18,17.20
2015,12,12,07,19,18.90
2015,12,12,07,20,18.70
2015,12,12,07,21,12.90
2015,12,12,07,22,14.90
2015,12,12,07,23,18.90
2015,12,12,07,24,20.40
2015,12,12,07,25,13.50
2015,12,12,07,26,17.70
2015,12,12,07,27,18.00
2015,12,12,07,28,20.50
2015,12,12,07,29,15.00
2015,12,12,07,30,16.90
2015,12,12,07,31,18.00
2015,12,12,07,32,15.90
2015,12,12,07,33,20.50
2015,12,12,07,34,17.50
2015,12,12,07,35,14.00
2015,12,12,07,36,17.00
2015,12,12,07,37,18.30
2015,12,12,07,38,14.20
2015,12,12,07,39,16.70
2015,12,12,07,40,20.40
2015,12,12,07,41,18.10
2015,12,12,07,42,18.50
2015,12,12,07,43,17.60
2015,12,12,07,44,16.90
2015,12,12,07,45,18.10
2015,12,12,07,46,11.60
2015,12,12,07,47,14.30
2015,12,12,07,48,17.00
2015,12,12,07,49,14.20
2015,12,12,07,50,15.40
2015,12,12,07,51,8.90
2015,12,12,07,52,14.90
2015,12,12,07,53,11.30
2015,12,12,07,54,8.90
2015,12,12,07,55,11.30
2015,12,12,07,56,11.00
2015,12,12,07,57,11.70
2015,12,12,07,58,12.50
2015,12,12,07,59,17.70
2015,12,12,08,00,14.00
2015,12,12,08,01,10.30
2015,12,12,08,02,12.30
2015,12,12,08,03,14.10
2015,12,12,08,04,15.10
2015,12,12,08,05,15.60
2015,12,12,08,06,10.50
2015,12,12,08,07,9.20
2015,12,12,08,08,13.70
2015,12,12,08,09,15.30
2015,12,12,08,10,9.60
2015,12,12,08,11,11.30
2015,12,12,08,12,16.00
2015,12,12,08,13,15.10
2015,12,12,08,14,17.40
2015,12,12,08,15,10.70
2015,12,12,08,16,9.40
2015,12,12,08,17,8.90
2015,12,12,08,18,6.70
2015,12,12,08,19,8.30
2015,12,12,08,20,9.30
2015,12,12,08,21,10.20
2015,12,12,08,22,9.90
2015,12,12,08,23,8.30
2015,12,12,08,24,7.80
2015,12,12,08,25,7.70
2015,12,12,08,26,13.00
2015,12,12,08,27,9.50
2015,12,12,08,28,17.10
2015,12,12,08,29,9.30
2015,12,12,08,30,11.30
2015,12,12,08,31,10.70
2015,12,12,08,32,8.40
2015,12,12,08,33,5.40
2015,12,12,08,34,6.90
2015,12,12,08,35,9.00
2015,12,12,08,36,7.60
2015,12,12,08,37,11.10
2015,12,12,08,38,10.30
2015,12,12,08,39,6.80
2015,12,12,08,40,6.70
2015,12,12,08,41,6.50
2015,12,12,08,42,9.70
2015,12,12,08,43,11.70
2015,12,12,08,44,10.50
2015,12,12,08,45,12.10
2015,12,12,08,46,10.50
2015,12,12,08,47,6.70
2015,12,12,08,48,7.00
2015,12,12,08,49,9.30
2015,12,12,08,50,11.50
2015,12,12,08,51,13.10
2015,12,12,08,52,15.00
2015,12,12,08,53,12.10
2015,12,12,08,54,14.80
2015,12,12,08,55,7.10
2015,12,12,08,56,8.80
2015,12,12,08,57,9.30
2015,12,12,08,58,11.90
2015,12,12,08,59,11.30
2015,12,12,09,00,6.40
2015,12,12,09,01,9.70
2015,12,12,09,02,10.40
2015,12,12,09,03,11.30
2015,12,12,09,04,9.90
2015,12,12,09,05,7.20
2015,12,12,09,06,10.50
2015,12,12,09,07,8.40
2015,12,12,09,08,11.30
2015,12,12,09,09,13.60
2015,12,12,09,10,9.30
2015,12,12,09,11,9.50
2015,12,12,09,12,9.40
2015,12,12,09,13,11.90
2015,12,12,09,14,12.10
2015,12,12,09,15,11.30
2015,12,12,09,16,11.60
2015,12,12,09,17,6.40
2015,12,12,09,18,8.40
2015,12,12,09,19,13.00
2015,12,12,09,20,10.90
2015,12,12,09,21,10.10
2015,12,12,09,22,16.80
2015,12,12,09,23,14.70
2015,12,12,09,24,16.80
2015,12,12,09,25,10.90
2015,12,12,09,26,10.70
2015,12,12,09,27,9.20
2015,12,12,09,28,10.70
2015,12,12,09,29,10.50
2015,12,12,09,30,11.80
2015,12,12,09,31,17.90
2015,12,12,09,32,16.00
2015,12,12,09,33,10.80
2015,12,12,09,34,15.70
2015,12,12,09,35,16.50
2015,12,12,09,36,21.10
2015,12,12,09,37,20.80
2015,12,12,09,38,16.20
2015,12,12,09,39,16.50
2015,12,12,09,40,21.20
2015,12,12,09,41,18.80
2015,12,12,09,42,11.60
2015,12,12,09,43,12.40
2015,12,12,09,44,18.60
2015,12,12,09,45,23.70
2015,12,12,09,46,17.40
2015,12,12,09,47,15.40
2015,12,12,09,48,26.00
2015,12,12,09,49,29.70
2015,12,12,09,50,25.90
2015,12,12,09,51,15.70
2015,12,12,09,52,24.90
2015,12,12,09,53,21.00
2015,12,12,09,54,25.30
2015,12,12,09,55,27.00
2015,12,12,09,56,29.50
2015,12,12,09,57,27.60
2015,12,12,09,58,18.30
2015,12,12,09,59,23.50
2015,12,12,10,00,22.90
2015,12,12,10,01,27.40
2015,12,12,10,02,25.20
2015,12,12,10,03,24.70
2015,12,12,10,04,31.00
2015,12,12,10,05,25.40
2015,12,12,10,06,21.50
2015,12,12,10,07,24.70
2015,12,12,10,08,35.60
2015,12,12,10,09,32.50
2015,12,12,10,10,26.40
2015,12,12,10,11,33.70
2015,12,12,10,12,19.00
2015,12,12,10,13,24.10
2015,12,12,10,14,26.60
2015,12,12,10,15,31.60
2015,12,12,10,16,23.20
2015,12,12,10,17,21.10
2015,12,12,10,18,27.20
2015,12,12,10,19,26.30
2015,12,12,10,20,25.80
2015,12,12,10,21,23.40
2015,12,12,10,22,27.20
2015,12,12,10,23,26.80
2015,12,12,10,24,17.20
2015,12,12,10,25,19.80
2015,12,12,10,26,31.90
2015,12,12,10,27,24.40
2015,12,12,10,28,20.50
2015,12,12,10,29,25.40
2015,12,12,10,30,25.00
2015,12,12,10,31,30.10
2015,12,12,10,32,31.10
2015,12,12,10,33,31.60
2015,12,12,10,34,24.60
2015,12,12,10,35,31.10
2015,12,12,10,36,22.30
2015,12,12,10,37,29.10
2015,12,12,10,38,23.50
2015,12,12,10,39,29.90
2015,12,12,10,40,28.20
2015,12,12,10,41,29.30
2015,12,12,10,42,36.90
2015,12,12,10,43,36.80
2015,12,12,10,44,24.70
2015,12,12,10,45,23.00
2015,12,12,10,46,33.60
2015,12,12,10,47,34.80
2015,12,12,10,48,28.00
2015,12,12,10,49,26.40
2015,12,12,10,50,24.40
2015,12,12,10,51,35.20
2015,12,12,10,52,34.10
2015,12,12,10,53,26.00
2015,12,12,10,54,28.70
2015,12,12,10,55,36.60
2015,12,12,10,56,36.20
2015,12,12,10,57,26.10
2015,12,12,10,58,31.20
2015,12,12,10,59,22.90
2015,12,12,11,00,36.70
2015,12,12,11,01,29.10
2015,12,12,11,02,38.60
2015,12,12,11,03,24.90
2015,12,12,11,04,33.90
2015,12,12,11,05,38.90
2015,12,12,11,06,25.40
2015,12,12,11,07,27.40
2015,12,12,11,08,25.00
2015,12,12,11,09,37.00
2015,12,12,11,10,39.00
2015,12,12,11,11,23.30
2015,12,12,11,12,27.80
2015,12,12,11,13,30.20
2015,12,12,11,14,37.70
2015,12,12,11,15,36.50
2015,12,12,11,16,38.90
2015,12,12,11,17,43.70
2015,12,12,11,18,48.60
2015,12,12,11,19,33.40
2015,12,12,11,20,31.00
2015,12,12,11,21,24.00
2015,12,12,11,22,38.20
2015,12,12,11,23,39.50
2015,12,12,11,24,31.30
2015,12,12,11,25,48.30
2015,12,12,11,26,41.10
2015,12,12,11,27,42.40
2015,12,12,11,28,38.60
2015,12,12,11,29,36.40
2015,12,12,11,30,37.20
2015,12,12,11,31,33.20
2015,12,12,11,32,32.90
2015,12,12,11,33,43.20
2015,12,12,11,34,44.90
2015,12,12,11,35,40.40
2015,12,12,11,36,34.30
2015,12,12,11,37,46.20
2015,12,12,11,38,34.10
2015,12,12,11,39,33.40
2015,12,12,11,40,42.50
2015,12,12,11,41,30.30
2015,12,12,11,42,38.80
2015,12,12,11,43,26.70
2015,12,12,11,44,27.50
2015,12,12,11,45,34.00
2015,12,12,11,46,42.00
2015,12,12,11,47,38.90
2015,12,12,11,48,47.60
2015,12,12,11,49,36.60
2015,12,12,11,50,36.00
2015,12,12,11,51,35.00
2015,12,12,11,52,33.20
2015,12,12,11,53,30.00
2015,12,12,11,54,33.20
2015,12,12,11,55,38.30
2015,12,12,11,56,34.70
2015,12,12,11,57,35.30
2015,12,12,11,58,39.00
2015,12,12,11,59,40.80
2015,12,12,12,00,39.80
2015,12,12,12,01,42.10
2015,12,12,12,02,41.50
2015,12,12,12,03,34.00
2015,12,12,12,04,27.60
2015,12,12,12,05,36.80
2015,12,12,12,06,33.50
2015,12,12,12,07,33.60
2015,12,12,12,08,35.50
2015,12,12,12,09,50.20
2015,12,12,12,10,42.70
2015,12,12,12,11,37.50
2015,12,12,12,12,43.80
2015,12,12,12,13,37.20
2015,12,12,12,14,38.70
2015,12,12,12,15,39.60
2015,12,12,12,16,33.00
2015,12,12,12,17,38.50
2015,12,12,12,18,38.60
2015,12,12,12,19,30.30
2015,12,12,12,20,45.00
2015,12,12,12,21,37.60
2015,12,12,12,22,37.70
2015,12,12,12,23,39.50
2015,12,12,12,24,36.60
2015,12,12,12,25,36.70
2015,12,12,12,26,29.70
2015,12,12,12,27,32.90
2015,12,12,12,28,31.80
2015,12,12,12,29,34.90
2015,12,12,12,30,28.20
2015,12,12,12,31,39.40
2015,12,12,12,32,30.60
2015,12,12,12,33,31.90
2015,12,12,12,34,35.70
2015,12,12,12,35,41.10
2015,12,12,12,36,39.90
2015,12,12,12,37,48.20
2015,12,12,12,38,52.10
2015,12,12,12,39,35.10
2015,12,12,12,40,33.50
2015,12,12,12,41,32.90
2015,12,12,12,42,48.10
2015,12,12,12,43,48.40
2015,12,12,12,44,41.00
2015,12,12,12,45,45.50
2015,12,12,12,46,55.50
2015,12,12,12,47,44.30
2015,12,12,12,48,39.10
2015,12,12,12,49,45.30
2015,12,12,12,50,36.20
2015,12,12,12,51,44.80
2015,12,12,12,52,34.30
2015,12,12,12,53,41.00
2015,12,12,12,54,41.00
2015,12,12,12,55,34.70
2015,12,12,12,56,38.60
2015,12,12,12,57,40.40
2015,12,12,12,58,36.20
2015,12,12,12,59,34.00
2015,12,12,13,00,37.00
2015,12,12,13,01,36.10
2015,12,12,13,02,35.90
2015,12,12,13,03,34.60
2015,12,12,13,04,51.00
2015,12,12,13,05,39.90
2015,12,12,13,06,35.70
2015,12,12,13,07,52.90
2015,12,12,13,08,39.50
2015,12,12,13,09,32.20
2015,12,12,13,10,34.50
2015,12,12,13,11,36.10
2015,12,12,13,12,34.30
2015,12,12,13,13,39.70
2015,12,12,13,14,28.60
2015,12,12,13,15,22.50
2015,12,12,13,16,32.60
2015,12,12,13,17,33.40
2015,12,12,13,18,26.20
2015,12,12,13,19,34.80
2015,12,12,13,20,33.80
2015,12,12,13,21,32.00
2015,12,12,13,22,34.40
2015,12,12,13,23,37.40
2015,12,12,13,24,40.50
2015,12,12,13,25,44.70
2015,12,12,13,26,35.10
2015,12,12,13,27,40.40
2015,12,12,13,28,37.60
2015,12,12,13,29,39.10
2015,12,12,13,30,51.10
2015,12,12,13,31,42.10
2015,12,12,13,32,40.70
2015,12,12,13,33,42.30
2015,12,12,13,34,26.90
2015,12,12,13,35,36.90
2015,12,12,13,36,36.00
2015,12,12,13,37,24.20
2015,12,12,13,38,37.00
2015,12,12,13,39,42.60
2015,12,12,13,40,23.40
2015,12,12,13,41,40.80
2015,12,12,13,42,43.50
2015,12,12,13,43,43.20
2015,12,12,13,44,36.50
2015,12,12,13,45,30.90
2015,12,12,13,46,40.20
2015,12,12,13,47,36.90
2015,12,12,13,48,38.30
2015,12,12,13,49,44.30
2015,12,12,13,50,45.70
2015,12,12,13,51,29.40
2015,12,12,13,52,36.20
2015,12,12,13,53,40.30
2015,12,12,13,54,24.70
2015,12,12,13,55,31.30
2015,12,12,13,56,37.50
2015,12,12,13,57,41.30
2015,12,12,13,58,48.50
2015,12,12,13,59,36.20
2015,12,12,14,00,34.70
2015,12,12,14,01,40.20
2015,12,12,14,02,38.90
2015,12,12,14,03,42.80
2015,12,12,14,04,47.00
2015,12,12,14,05,26.70
2015,12,12,14,06,43.80
2015,12,12,14,07,33.10
2015,12,12,14,08,39.30
2015,12,12,14,09,39.30
2015,12,12,14,10,34.70
2015,12,12,14,11,43.70
2015,12,12,14,12,48.10
2015,12,12,14,13,38.70
2015,12,12,14,14,47.80
2015,12,12,14,15,46.80
2015,12,12,14,16,34.60
2015,12,12,14,17,41.10
2015,12,12,14,18,47.40
2015,12,12,14,19,34.80
2015,12,12,14,20,45.30
2015,12,12,14,21,40.90
2015,12,12,14,22,42.40
2015,12,12,14,23,36.20
2015,12,12,14,24,40.20
2015,12,12,14,25,39.40
2015,12,12,14,26,41.80
2015,12,12,14,27,47.20
2015,12,12,14,28,49.10
2015,12,12,14,29,31.60
2015,12,12,14,30,36.50
2015,12,12,14,31,39.40
2015,12,12,14,32,39.30
2015,12,12,14,33,43.90
2015,12,12,14,34,33.00
2015,12,12,14,35,46.10
2015,12,12,14,36,44.90
2015,12,12,14,37,38.60
2015,12,12,14,38,34.50
2015,12,12,14,39,41.30
2015,12,12,14,40,48.70
2015,12,12,14,41,38.40
2015,12,12,14,42,47.60
2015,12,12,14,43,30.60
2015,12,12,14,44,30.40
2015,12,12,14,45,35.50
2015,12,12,14,46,42.40
2015,12,12,14,47,27.60
2015,12,12,14,48,27.70
2015,12,12,14,49,33.10
2015,12,12,14,50,38.40
2015,12,12,14,51,34.60
2015,12,12,14,52,38.00
2015,12,12,14,53,38.80
2015,12,12,14,54,37.20
2015,12,12,14,55,39.60
2015,12,12,14,56,36.20
2015,12,12,14,57,39.30
2015,12,12,14,58,35.70
2015,12,12,14,59,35.00
2015,12,12,15,00,39.50
2015,12,12,15,01,41.10
2015,12,12,15,02,34.80
2015,12,12,15,03,36.50
2015,12,12,15,04,47.50
2015,12,12,15,05,51.90
2015,12,12,15,06,34.60
2015,12,12,15,07,40.10
2015,12,12,15,08,23.60
2015,12,12,15,09,28.60
2015,12,12,15,10,28.10
2015,12,12,15,11,33.40
2015,12,12,15,12,35.30
2015,12,12,15,13,31.30
2015,12,12,15,14,21.20
2015,12,12,15,15,34.60
2015,12,12,15,16,36.00
2015,12,12,15,17,43.80
2015,12,12,15,18,31.20
2015,12,12,15,19,35.30
2015,12,12,15,20,32.70
2015,12,12,15,21,39.90
2015,12,12,15,22,31.80
2015,12,12,15,23,35.20
2015,12,12,15,24,23.20
2015,12,12,15,25,32.80
2015,12,12,15,26,37.20
2015,12,12,15,27,40.30
2015,12,12,15,28,37.10
2015,12,12,15,29,35.40
2015,12,12,15,30,34.40
2015,12,12,15,31,38.60
2015,12,12,15,32,42.20
2015,12,12,15,33,39.30
2015,12,12,15,34,33.70
2015,12,12,15,35,31.10
2015,12,12,15,36,25.30
2015,12,12,15,37,29.90
2015,12,12,15,38,39.10
2015,12,12,15,39,26.80
2015,12,12,15,40,38.70
2015,12,12,15,41,35.90
2015,12,12,15,42,23.80
2015,12,12,15,43,30.60
2015,12,12,15,44,35.90
2015,12,12,15,45,39.30
2015,12,12,15,46,30.90
2015,12,12,15,47,37.60
2015,12,12,15,48,36.00
2015,12,12,15,49,30.30
2015,12,12,15,50,22.30
2015,12,12,15,51,33.10
2015,12,12,15,52,21.10
2015,12,12,15,53,31.30
2015,12,12,15,54,30.10
2015,12,12,15,55,19.20
2015,12,12,15,56,23.90
2015,12,12,15,57,14.60
2015,12,12,15,58,12.50
2015,12,12,15,59,21.10
2015,12,12,16,00,28.30
2015,12,12,16,01,28.40
2015,12,12,16,02,25.60
2015,12,12,16,03,24.70
2015,12,12,16,04,27.80
2015,12,12,16,05,19.30
2015,12,12,16,06,17.70
2015,12,12,16,07,15.40
2015,12,12,16,08,22.90
2015,12,12,16,09,29.70
2015,12,12,16,10,32.90
2015,12,12,16,11,27.90
2015,12,12,16,12,30.00
2015,12,12,16,13,22.50
2015,12,12,16,14,26.20
2015,12,12,16,15,24.80
2015,12,12,16,16,30.70
2015,12,12,16,17,28.10
2015,12,12,16,18,26.70
2015,12,12,16,19,23.80
2015,12,12,16,20,21.70
2015,12,12,16,21,33.10
2015,12,12,16,22,25.70
2015,12,12,16,23,30.20
2015,12,12,16,24,22.50
2015,12,12,16,25,25.10
2015,12,12,16,26,25.00
2015,12,12,16,27,24.80
2015,12,12,16,28,31.30
2015,12,12,16,29,28.60
2015,12,12,16,30,22.50
2015,12,12,16,31,25.50
2015,12,12,16,32,31.80
2015,12,12,16,33,28.20
2015,12,12,16,34,23.30
2015,12,12,16,35,23.10
2015,12,12,16,36,22.20
2015,12,12,16,37,19.50
2015,12,12,16,38,20.50
2015,12,12,16,39,27.50
2015,12,12,16,40,27.50
2015,12,12,16,41,25.60
2015,12,12,16,42,29.10
2015,12,12,16,43,34.40
2015,12,12,16,44,37.70
2015,12,12,16,45,30.50
2015,12,12,16,46,24.40
2015,12,12,16,47,31.60
2015,12,12,16,48,19.10
2015,12,12,16,49,18.20
2015,12,12,16,50,18.80
2015,12,12,16,51,20.10
2015,12,12,16,52,18.20
2015,12,12,16,53,28.80
2015,12,12,16,54,16.30
2015,12,12,16,55,23.20
2015,12,12,16,56,19.90
2015,12,12,16,57,26.30
2015,12,12,16,58,30.50
2015,12,12,16,59,25.40
2015,12,12,17,00,16.30
2015,12,12,17,01,21.50
2015,12,12,17,02,24.50
2015,12,12,17,03,17.60
2015,12,12,17,04,25.10
2015,12,12,17,05,25.60
2015,12,12,17,06,17.50
2015,12,12,17,07,17.50
2015,12,12,17,08,17.00
2015,12,12,17,09,20.60
2015,12,12,17,10,24.10
2015,12,12,17,11,17.00
2015,12,12,17,12,18.30
2015,12,12,17,13,17.90
2015,12,12,17,14,20.60
2015,12,12,17,15,18.90
2015,12,12,17,16,13.70
2015,12,12,17,17,19.10
2015,12,12,17,18,20.40
2015,12,12,17,19,23.50
2015,12,12,17,20,18.20
2015,12,12,17,21,18.80
2015,12,12,17,22,16.70
2015,12,12,17,23,20.60
2015,12,12,17,24,21.50
2015,12,12,17,25,15.40
2015,12,12,17,26,17.80
2015,12,12,17,27,15.80
2015,12,12,17,28,19.10
2015,12,12,17,29,19.70
2015,12,12,17,30,24.00
2015,12,12,17,31,22.40
2015,12,12,17,32,23.30